Regional Weather Roundup
Issued by NWS

Home | Current Version | Previous Version | Text Only | Print | Product List | Glossary On
Versions: 1 2 3 4 5 6 7 8 9 10 11 12 13 14 15 16 17 18 19 20 21 22 23 24 25 26 27
000
ASUS43 KDMX 240107
RWRIA

WEATHER ROUNDUP FOR IOWA
NATIONAL WEATHER SERVICE DES MOINES IA
800 PM CDT WED APR 23 2014

NOTE: "FAIR" INDICATES FEW OR NO CLOUDS BELOW 12,000 FEET WITH NO
SIGNIFICANT WEATHER AND/OR OBSTRUCTIONS TO VISIBILITY.

* - THESE STATIONS ARE NOT NWS STATIONS...THUS NOT UNDER NWS
QUALITY CONTROL.  THEY ALSO DO NOT REPORT WEATHER SUCH
AS PRECIPITATION OR FOG.

IAZ001>003-012>014-020>022-031>034-043>046-240200-
   NORTHWEST IOWA

CITY           SKY/WX    TMP DP  RH WIND       PRES   REMARKS
CARROLL *      CLOUDY    46  43  87 SE18G25   29.72F
CHEROKEE *     MOCLDY    48  39  71 SE16G24   29.73F
DENISON *      MOCLDY    52  43  71 SE15G22   29.69S
LE MARS *      CLOUDY    54  43  66 SE16G23   29.68R
ORANGE CITY *  PTCLDY    52  41  66 SE15G22   29.70R
SHELDON *      CLOUDY    48  39  71 SE24G32   29.71S
SIOUX CITY     LGT RAIN  54  46  74 SE18      29.64F
SPENCER        MOCLDY    47  38  71 SE24G37   29.76F
STORM LAKE *   CLOUDY    48  39  71 SE21G31   29.74R
$$

IAZ055>058-069>071-079>083-090>094-240200-
   SOUTHWEST IOWA

CITY           SKY/WX    TMP DP  RH WIND       PRES   REMARKS
ATLANTIC *     CLOUDY    52  43  71 SE18G31   29.67F
AUDUBON *      LGT RAIN  50  41  71 SE20G30   29.71S
CLARINDA *     PTCLDY    57  45  62 E8        29.69F
COUNCIL BLFS * CLOUDY    54  46  76 SE21      29.63R
CRESTON *      CLEAR     54  41  62 SE23      29.74F
HARLAN  *      CLOUDY    50  45  81 SE23G31   29.70F
LAMONI         CLOUDY    57  39  51 SE13G24   29.77F
RED OAK *      MOCLDY    57  43  58 SE18G28   29.66F
SHENANDOAH *   CLEAR     59  45  58 E15       29.65F
$$

IAZ047>049-059>061-072>074-084-240200-
   CENTRAL IOWA

CITY           SKY/WX    TMP DP  RH WIND       PRES   REMARKS
AMES           CLOUDY    47  38  71 SE21G31   29.79F
ANKENY *       LGT RAIN  48  41  76 SE14G28   29.79F
CHARITON *     CLOUDY    52  41  66 E15       29.82F
DES MOINES     LGT RAIN  50  40  68 SE20G32   29.81F
GRINNELL*      DRIZZLE   46  39  76 SE21G26   29.86S
KNOXVILLE *    CLOUDY    50  39  66 SE12G18   29.83S
MARSHALLTOWN   CLOUDY    45  40  82 SE17      29.86F
NEWTON *       CLOUDY    46  39  76 SE20      29.86S
PELLA *        CLOUDY    48  41  76 SE15G21   29.87S
PERRY *        CLOUDY    46  41  81 SE22G30   29.75R
$$

IAZ004>006-015-016-023>025-035-036-240200-
   NORTH CENTRAL IOWA

CITY           SKY/WX    TMP DP  RH WIND       PRES   REMARKS
ALGONA *       CLOUDY    45  37  76 SE20G32   29.79F
CLARION *      CLOUDY    45  39  81 SE28G38   29.79F
ESTHERVILLE    CLOUDY    44  38  79 SE29G36   29.79F
FORT DODGE *   CLOUDY    46  37  71 SE18G25   29.80S
MASON CITY     CLOUDY    44  38  79 SE20G30   29.87F
FOREST CITY *  CLOUDY    45  37  76 SE21G30   29.82F
IOWA FALLS *   CLOUDY    45  39  81 E24G31    29.84F
$$

IAZ007>011-017>019-026>030-037>042-050>054-066-240200-
   NORTHEAST IOWA

CITY           SKY/WX    TMP DP  RH WIND       PRES   REMARKS
CEDAR RAPIDS   LGT RAIN  46  42  86 E17       29.91F
CHARLES CITY * CLOUDY    43  37  81 SE20      29.91S
CLINTON *      CLOUDY    46  39  76 E14       30.00F
DECORAH *      CLOUDY    43  37  81 SE12G18   29.95F
DUBUQUE        CLOUDY    45  37  73 SE9       29.99S
MONTICELLO *   CLOUDY    46  39  76 SE9       29.98R
OELWEIN *      CLOUDY   N/A N/A N/A SE18G25   29.93F
WATERLOO       CLOUDY    45  39  79 SE16      29.90F
$$

IAZ064-065-067-068-078-240200-
   EAST CENTRAL IOWA

CITY           SKY/WX    TMP DP  RH WIND       PRES   REMARKS
DAVENPORT      CLOUDY    48  39  71 SE12      29.99F
IOWA CITY      LGT RAIN  47  41  80 SE12      29.96F
MT. PLEASANT * CLOUDY    50  41  71 E9        29.95F
MUSCATINE *    CLOUDY    50  41  71 SE10      29.97F
QUAD CITIES    CLOUDY    49  39  68 SE9       29.99F
$$

IAZ062-063-075>077-085>089-095>099-240200-
   SOUTHEAST IOWA

CITY           SKY/WX    TMP DP  RH WIND       PRES   REMARKS
BURLINGTON     CLOUDY    52  39  61 E9        29.95S
FAIRFIELD *    MOCLDY    50  39  66 E15       29.90F
FORT MADISON * PTCLDY    54  36  50 E12G18    29.94F
KEOKUK *       MOCLDY    57  32  38 E16       29.92F
OSKALOOSA *      N/A     48  41  76 SE17G26   29.87F
CENTERVILLE *  CLEAR     55  37  50 E14G23    29.85R
OTTUMWA        CLOUDY    49  40  71 E13       29.86F
WASHINGTON *   CLOUDY    48  43  81 E20       29.91F
$$

ABBREVIATIONS USED IN REMARKS
   TC - TEMPERATURES IN CELSIUS
  WCI - WIND CHILL INDEX
   HX - HEAT INDEX
  VSB - VISIBILITY
$$




USA.gov is the U.S. government's official web portal to all federal, state and local government web resources and services.